Wheaton NDB, MN

11:21 PM CDT on March 28, 2017 (GMT -0500)
Wheaton Municipal

Weather History for KETH - April, 2013

Change the Weather History Date:

Saturday, April 6, 2013

  Actual Average Record
Temperature  
Mean Temperature 34 °F -  
Max Temperature 37 °F 53 °F 84 °F (1991)
Min Temperature 32 °F 28 °F 5 °F (1979)
Degree Days  
Heating Degree Days 30    
Moisture  
Dew Point 31 °F    
Average Humidity 87    
Maximum Humidity 93    
Minimum Humidity 81    
Precipitation  
Precipitation 0.00 in - - ()
Sea Level Pressure  
Sea Level Pressure 29.71 in    
Wind  
Wind Speed 13 mph (NNW)    
Max Wind Speed 21 mph    
Max Gust Speed 26 mph    
Visibility 10 miles    
Events Snow    
Averages and records for this station are not official NWS values.
T = Trace of Precipitation, MM = Missing Value Source: NWS Daily Summary

Daily Weather History Graph

Daily Weather History Graph

Search for Another Location

Airport or City:

Trip Planner

Search our weather history database for the weather conditions in past years. The results will help you decide how hot, cold, wet, or windy it might be!

Date:

Astronomy

Apr. 06, 2013 Rise Set
Actual Time 6:56 AM CDT 8:01 PM CDT
Civil Twilight 6:25 AM CDT 8:31 PM CDT
Nautical Twilight 5:49 AM CDT 9:08 PM CDT
Astronomical Twilight 5:10 AM CDT 9:47 PM CDT
Moon 4:51 AM CDT (4/6) 4:21 PM CDT (4/6)
Length of Visible Light 14h 06m
Length of Day
13h 05m
Waning Crescent, 15% of the Moon is Illuminated
Apr 6
Waning Crescent
Apr 10
New
Apr 18
First Quarter
Apr 25
Full
May 2
Last Quarter

Hourly Weather History & Observations

Time (CDT) Temp. Windchill Dew Point Humidity Pressure Visibility Wind Dir Wind Speed Gust Speed Precip Events Conditions
12:15 AM 33.8 °F 22.2 °F 30.2 °F 87% 29.74 in 10.0 mi ESE 20.7 mph 26.5 mph N/A   Clear
12:34 AM 33.8 °F 22.5 °F 30.2 °F 87% 29.74 in 10.0 mi ESE 19.6 mph - N/A   Clear
12:54 AM 33.8 °F 23.2 °F 30.2 °F 87% 29.73 in 10.0 mi ESE 17.3 mph - N/A   Scattered Clouds
1:15 AM 33.8 °F 22.8 °F 30.2 °F 87% 29.71 in 10.0 mi ESE 18.4 mph - N/A   Scattered Clouds
1:34 AM 33.8 °F 24.3 °F 30.2 °F 87% 29.71 in 10.0 mi ESE 13.8 mph - N/A   Scattered Clouds
1:54 AM 33.8 °F 23.9 °F 30.2 °F 87% 29.70 in 10.0 mi ESE 15.0 mph - N/A   Overcast
2:14 AM 33.8 °F 23.5 °F 30.2 °F 87% 29.68 in 10.0 mi ESE 16.1 mph - N/A   Mostly Cloudy
2:34 AM 35.6 °F 26.2 °F 30.2 °F 81% 29.67 in 10.0 mi ESE 15.0 mph - N/A   Mostly Cloudy
2:54 AM 35.6 °F 27.1 °F 30.2 °F 81% 29.66 in 10.0 mi ESE 12.7 mph - N/A   Overcast
3:14 AM 35.6 °F 27.1 °F 30.2 °F 81% 29.66 in 10.0 mi ESE 12.7 mph - N/A   Overcast
3:34 AM 35.6 °F 27.5 °F 30.2 °F 81% 29.65 in 10.0 mi East 11.5 mph - N/A   Overcast
3:54 AM 35.6 °F 29.2 °F 30.2 °F 81% 29.65 in 10.0 mi East 8.1 mph - N/A   Scattered Clouds
4:14 AM 35.6 °F 28.0 °F 30.2 °F 81% 29.64 in 10.0 mi East 10.4 mph - N/A   Scattered Clouds
4:34 AM 35.6 °F 31.7 °F 30.2 °F 81% 29.64 in 10.0 mi ENE 4.6 mph - N/A   Scattered Clouds
4:55 AM 35.6 °F 30.7 °F 30.2 °F 81% 29.63 in 10.0 mi NNE 5.8 mph - N/A   Clear
5:14 AM 33.8 °F 29.6 °F 30.2 °F 87% 29.64 in 10.0 mi NNW 4.6 mph - N/A   Clear
5:35 AM 32.0 °F 27.5 °F 30.2 °F 93% 29.64 in 10.0 mi North 4.6 mph - N/A   Clear
5:54 AM 32.0 °F 26.4 °F 30.2 °F 93% 29.64 in 10.0 mi North 5.8 mph - N/A   Clear
6:14 AM 33.8 °F 27.7 °F 30.2 °F 87% 29.63 in 10.0 mi NNE 6.9 mph - N/A   Clear
6:34 AM 33.8 °F 27.0 °F 30.2 °F 87% 29.63 in 10.0 mi North 8.1 mph - N/A   Clear
6:55 AM 33.8 °F 27.7 °F 30.2 °F 87% 29.62 in 10.0 mi NNE 6.9 mph - N/A   Scattered Clouds
7:14 AM 33.8 °F 28.6 °F 30.2 °F 87% 29.61 in 10.0 mi NNE 5.8 mph - N/A   Mostly Cloudy
7:35 AM 33.8 °F 27.7 °F 30.2 °F 87% 29.62 in 10.0 mi NNE 6.9 mph - N/A   Mostly Cloudy
7:54 AM 33.8 °F 27.7 °F 30.2 °F 87% 29.62 in 7.0 mi North 6.9 mph - N/A Snow Light Snow
8:15 AM 33.8 °F 27.7 °F 32.0 °F 93% 29.63 in 10.0 mi North 6.9 mph - N/A   Scattered Clouds
8:34 AM 33.8 °F 27.7 °F 32.0 °F 93% 29.63 in 10.0 mi North 6.9 mph - N/A   Scattered Clouds
8:54 AM 33.8 °F 28.6 °F 32.0 °F 93% 29.63 in 10.0 mi North 5.8 mph - N/A   Scattered Clouds
9:15 AM 35.6 °F 29.2 °F 32.0 °F 87% 29.62 in 10.0 mi NNE 8.1 mph - N/A   Clear
9:54 AM 35.6 °F 29.2 °F 32.0 °F 87% 29.61 in 10.0 mi North 8.1 mph - N/A   Clear
10:14 AM 35.6 °F 29.9 °F 32.0 °F 87% 29.62 in 10.0 mi NNW 6.9 mph - N/A   Clear
10:34 AM 35.6 °F 29.2 °F 32.0 °F 87% 29.63 in 10.0 mi NNW 8.1 mph - N/A   Clear
10:54 AM 35.6 °F 29.2 °F 33.8 °F 93% 29.64 in 10.0 mi NNW 8.1 mph - N/A   Scattered Clouds
11:14 AM 35.6 °F 28.0 °F 32.0 °F 87% 29.64 in 10.0 mi NW 10.4 mph - N/A   Overcast
11:34 AM 35.6 °F 28.0 °F 32.0 °F 87% 29.65 in 10.0 mi NW 10.4 mph - N/A   Mostly Cloudy
11:54 AM 35.6 °F 27.5 °F 32.0 °F 87% 29.66 in 10.0 mi NW 11.5 mph - N/A   Scattered Clouds
12:15 PM 35.6 °F 27.5 °F 32.0 °F 87% 29.66 in 10.0 mi NW 11.5 mph - N/A   Scattered Clouds
12:35 PM 35.6 °F 28.0 °F 33.8 °F 93% 29.66 in 10.0 mi NW 10.4 mph - N/A   Scattered Clouds
12:54 PM 37.4 °F 30.8 °F 33.8 °F 87% 29.66 in 10.0 mi NW 9.2 mph 17.3 mph N/A   Clear
1:14 PM 37.4 °F 30.8 °F 33.8 °F 87% 29.65 in 10.0 mi NW 9.2 mph - N/A   Clear
1:34 PM 37.4 °F 29.3 °F 33.8 °F 87% 29.66 in 10.0 mi NW 12.7 mph - N/A   Clear
1:54 PM 37.4 °F 28.2 °F 33.8 °F 87% 29.67 in 10.0 mi NW 16.1 mph - N/A   Clear
2:14 PM 37.4 °F 28.5 °F 33.8 °F 87% 29.68 in 10.0 mi NW 15.0 mph - N/A   Clear
2:34 PM 37.4 °F 28.2 °F 33.8 °F 87% 29.69 in 10.0 mi NW 16.1 mph 20.7 mph N/A   Clear
2:54 PM 37.4 °F 27.8 °F 33.8 °F 87% 29.69 in 10.0 mi NW 17.3 mph - N/A   Clear
3:15 PM 37.4 °F 28.2 °F 33.8 °F 87% 29.69 in 10.0 mi NW 16.1 mph - N/A   Clear
3:34 PM 37.4 °F 27.5 °F 33.8 °F 87% 29.70 in 10.0 mi NW 18.4 mph 21.9 mph N/A   Mostly Cloudy
3:54 PM 37.4 °F 28.2 °F 33.8 °F 87% 29.71 in 10.0 mi NW 16.1 mph 21.9 mph N/A   Overcast
4:14 PM 37.4 °F 27.5 °F 33.8 °F 87% 29.71 in 10.0 mi NW 18.4 mph - N/A   Overcast
4:34 PM 37.4 °F 28.2 °F 33.8 °F 87% 29.72 in 10.0 mi NW 16.1 mph 19.6 mph N/A   Overcast
4:54 PM 37.4 °F 28.2 °F 33.8 °F 87% 29.72 in 10.0 mi NW 16.1 mph 20.7 mph N/A   Overcast
5:14 PM 37.4 °F 28.9 °F 33.8 °F 87% 29.74 in 10.0 mi NW 13.8 mph - N/A   Overcast
5:34 PM 35.6 °F 26.6 °F 33.8 °F 93% 29.75 in 10.0 mi NW 13.8 mph 17.3 mph N/A   Overcast
5:54 PM 35.6 °F 25.9 °F 32.0 °F 87% 29.76 in 10.0 mi NW 16.1 mph 20.7 mph N/A   Overcast
6:15 PM 35.6 °F 26.6 °F 32.0 °F 87% 29.76 in 10.0 mi NNW 13.8 mph - N/A   Overcast
6:35 PM 35.6 °F 27.5 °F 32.0 °F 87% 29.77 in 10.0 mi NW 11.5 mph - N/A   Mostly Cloudy
6:54 PM 35.6 °F 26.6 °F 32.0 °F 87% 29.78 in 10.0 mi NNW 13.8 mph - N/A   Scattered Clouds
7:14 PM 35.6 °F 28.0 °F 30.2 °F 81% 29.79 in 10.0 mi NW 10.4 mph - N/A   Mostly Cloudy
7:35 PM 33.8 °F 25.3 °F 30.2 °F 87% 29.80 in 10.0 mi NW 11.5 mph - N/A   Overcast
7:54 PM 33.8 °F 26.4 °F 30.2 °F 87% 29.79 in 10.0 mi NW 9.2 mph - N/A   Mostly Cloudy
8:15 PM 33.8 °F 26.4 °F 30.2 °F 87% 29.80 in 10.0 mi NW 9.2 mph - N/A   Mostly Cloudy
8:34 PM 33.8 °F 25.8 °F 30.2 °F 87% 29.80 in 10.0 mi NW 10.4 mph - N/A   Mostly Cloudy
8:54 PM 33.8 °F 26.4 °F 30.2 °F 87% 29.81 in 10.0 mi NW 9.2 mph - N/A   Overcast
9:15 PM 33.8 °F 26.4 °F 30.2 °F 87% 29.82 in 10.0 mi NW 9.2 mph - N/A   Overcast
9:34 PM 33.8 °F 26.4 °F 30.2 °F 87% 29.83 in 10.0 mi WNW 9.2 mph - N/A   Overcast
9:54 PM 33.8 °F 25.8 °F 30.2 °F 87% 29.85 in 10.0 mi WNW 10.4 mph - N/A   Overcast
10:14 PM 33.8 °F 25.3 °F 30.2 °F 87% 29.85 in 10.0 mi NW 11.5 mph - N/A   Overcast
10:35 PM 33.8 °F 25.8 °F 30.2 °F 87% 29.86 in 10.0 mi NW 10.4 mph - N/A   Overcast
10:54 PM 33.8 °F 25.8 °F 30.2 °F 87% 29.85 in 10.0 mi NW 10.4 mph 16.1 mph N/A   Mostly Cloudy
11:14 PM 32.0 °F 24.2 °F 30.2 °F 93% 29.85 in 10.0 mi NW 9.2 mph - N/A   Scattered Clouds
11:34 PM 32.0 °F 24.2 °F 30.2 °F 93% 29.86 in 7.0 mi WNW 9.2 mph - N/A   Scattered Clouds
11:54 PM 32.0 °F 24.8 °F 30.2 °F 93% 29.86 in 7.0 mi WNW 8.1 mph - N/A   Scattered Clouds